Redmond, OR

11:37 PM PDT on September 19, 2019 (GMT -0700)
Roberts Field Airport

Weather History for KRDM - August, 2019

Change the Weather History Date:

Saturday, August 24, 2019

  Actual Average Record
Temperature  
Mean Temperature 69 °F 63 °F  
Max Temperature 89 °F 83 °F 97 °F (1999)
Min Temperature 49 °F 44 °F 31 °F (1992)
Degree Days  
Heating Degree Days 0 3  
Month to date heating degree days 9 53  
Since 1 June heating degree days 191 339  
Since 1 July heating degree days 42 122  
Cooling Degree Days 4 2  
Month to date cooling degree days 113 71  
Year to date cooling degree days 219 197  
Since 1 June cooling degree days 219 192  
Growing Degree Days 19 (Base 50)    
Moisture  
Dew Point 41 °F    
Average Humidity 47    
Maximum Humidity 77    
Minimum Humidity 16    
Precipitation  
Precipitation 0.00 in 0.01 in 0.42 in (1997)
Month to date precipitation T 0.38  
Year to date precipitation 7.46 5.61  
Sea Level Pressure  
Sea Level Pressure 29.91 in    
Wind  
Wind Speed 7 mph (NW)    
Max Wind Speed 22 mph    
Max Gust Speed 28 mph    
Visibility 10 miles    
Events      
T = Trace of Precipitation, MM = Missing Value Source: NWS Daily Summary

Daily Weather History Graph

Daily Weather History Graph

Search for Another Location

Airport or City:

Astronomy

Aug. 24, 2019 Rise Set
Actual Time 6:18 AM PDT 7:54 PM PDT
Civil Twilight 5:47 AM PDT 8:25 PM PDT
Nautical Twilight 5:10 AM PDT 9:02 PM PDT
Astronomical Twilight 4:30 AM PDT 9:41 PM PDT
Moon 12:09 AM PDT (8/24) 3:22 PM PDT (8/24)
Length of Visible Light 14h 37m
Length of Day
13h 36m
Last Quarter, 38% of the Moon is Illuminated
Aug 24
Last Quarter
Aug 30
New
Sep 5
First Quarter
Sep 13
Full
Sep 21
Last Quarter

Hourly Weather History & Observations

Time (PDT) Temp. Dew Point Humidity Pressure Visibility Wind Dir Wind Speed Gust Speed Precip Events Conditions
12:56 AM 57.9 °F 46.0 °F 65% 29.86 in 10.0 mi Calm Calm - N/A   Clear
1:56 AM 55.9 °F 46.0 °F 69% 29.87 in 10.0 mi South 3.5 mph - N/A   Clear
2:56 AM 53.1 °F 45.0 °F 74% 29.88 in 10.0 mi Calm Calm - N/A   Clear
3:56 AM 52.0 °F 45.0 °F 77% 29.89 in 10.0 mi SSE 4.6 mph - N/A   Clear
4:56 AM 53.1 °F 45.0 °F 74% 29.88 in 10.0 mi Calm Calm - N/A   Clear
5:56 AM 51.1 °F 45.0 °F 80% 29.89 in 10.0 mi South 6.9 mph - N/A   Clear
6:56 AM 51.1 °F 44.1 °F 77% 29.92 in 10.0 mi SE 4.6 mph - N/A   Clear
7:56 AM 61.0 °F 46.9 °F 60% 29.91 in 10.0 mi South 5.8 mph - N/A   Clear
8:56 AM 66.9 °F 46.9 °F 49% 29.94 in 10.0 mi Calm Calm - N/A   Clear
9:56 AM 73.9 °F 39.0 °F 28% 29.93 in 10.0 mi Calm Calm - N/A   Clear
10:56 AM 78.1 °F 34.0 °F 20% 29.92 in 10.0 mi Variable 4.6 mph - N/A   Clear
11:56 AM 82.9 °F 35.1 °F 18% 29.92 in 10.0 mi WNW 10.4 mph - N/A   Clear
12:56 PM 82.0 °F 34.0 °F 18% 29.91 in 10.0 mi Variable 5.8 mph - N/A   Clear
1:56 PM 86.0 °F 35.1 °F 16% 29.89 in 10.0 mi Variable 6.9 mph - N/A   Clear
2:56 PM 87.1 °F 37.0 °F 17% 29.89 in 10.0 mi NNW 15.0 mph 21.9 mph N/A   Clear
3:56 PM 86.0 °F 35.1 °F 16% 29.90 in 10.0 mi NNW 17.3 mph - N/A   Clear
4:56 PM 84.9 °F 35.1 °F 17% 29.90 in 10.0 mi NW 19.6 mph 28.8 mph N/A   Clear
5:56 PM 82.0 °F 36.0 °F 19% 29.90 in 10.0 mi NW 13.8 mph 25.3 mph N/A   Clear
6:56 PM 80.1 °F 39.0 °F 23% 29.91 in 10.0 mi NW 13.8 mph 23.0 mph N/A   Clear
7:56 PM 73.9 °F 44.1 °F 34% 29.91 in 10.0 mi NNW 12.7 mph - N/A   Clear
8:56 PM 70.0 °F 44.1 °F 39% 29.93 in 10.0 mi East 6.9 mph - N/A   Clear
9:56 PM 66.0 °F 43.0 °F 43% 29.95 in 10.0 mi North 4.6 mph - N/A   Clear
10:56 PM 61.0 °F 42.1 °F 50% 29.95 in 10.0 mi Calm Calm - N/A   Clear
11:56 PM 54.0 °F 42.1 °F 64% 29.96 in 10.0 mi Calm Calm - N/A   Clear